Private Wetterstation Wechselburg
Wetterdaten: Sonntag, 25.12.2016
Datum Zeit Temp. +2m Bodentemp. Temp.+5cm Temp. Wind Windchill X Diff Temp. Feuchte +2m Feuchte +5cm Sonnenschein Luftdruck Regen Wind Richtung Richtung Sonnenschein Taupunkt Windchill Windben
25.12.2016 00:00 5,2 C 3,8 C 4,5 C 4,7 C 3,7 C 0,0 C 79 % 90 % 0 % 1023,4 hPa 0,0 l/m 7,4 km/h (2 Bft) N-NO 22 0 min 1,9 C 1,8 C 10,1 km/h (2 Bft)
25.12.2016 00:05 5,2 C 3,8 C 4,6 C 4,7 C 3,8 C 0,0 C 80 % 90 % 0 % 1023,4 hPa 0,0 l/m 7,4 km/h (2 Bft) S 180 0 min 2,0 C 1,9 C 7,7 km/h (2 Bft)
25.12.2016 00:10 5,2 C 3,8 C 4,7 C 4,9 C 3,9 C 0,0 C 80 % 89 % 0 % 1023,4 hPa 0,0 l/m 7,7 km/h (2 Bft) N-NW 337 0 min 2,0 C 1,9 C 5,5 km/h (1 Bft)
25.12.2016 00:15 5,3 C 3,8 C 4,7 C 4,8 C 3,9 C 0,0 C 80 % 90 % 0 % 1023,4 hPa 0,0 l/m 7,6 km/h (2 Bft) SW 225 0 min 2,1 C 2,0 C 17,4 km/h (3 Bft)
25.12.2016 00:20 5,3 C 3,8 C 4,7 C 4,9 C 4,1 C 0,0 C 80 % 90 % 0 % 1023,4 hPa 0,0 l/m 7,6 km/h (2 Bft) W-SW 247 0 min 2,1 C 2,2 C 12,4 km/h (3 Bft)
25.12.2016 00:25 5,4 C 3,8 C 4,6 C 5,1 C 3,8 C 0,0 C 79 % 89 % 0 % 1023,4 hPa 0,0 l/m 8,5 km/h (2 Bft) S-SW 202 0 min 2,1 C 1,6 C 10,5 km/h (2 Bft)
25.12.2016 00:30 5,5 C 3,8 C 4,7 C 5,2 C 3,9 C 0,0 C 80 % 89 % 0 % 1023,4 hPa 0,0 l/m 8,2 km/h (2 Bft) S 180 0 min 2,3 C 1,8 C 8,2 km/h (2 Bft)
25.12.2016 00:35 5,5 C 3,8 C 4,6 C 5,1 C 3,8 C 0,0 C 80 % 89 % 0 % 1023,4 hPa 0,0 l/m 7,9 km/h (2 Bft) W-SW 247 0 min 2,3 C 1,8 C 9,2 km/h (2 Bft)
25.12.2016 00:40 5,4 C 3,8 C 4,7 C 4,9 C 3,8 C 0,0 C 80 % 89 % 0 % 1022,1 hPa 0,0 l/m 7,7 km/h (2 Bft) O-SO 112 0 min 2,2 C 1,8 C 6,1 km/h (2 Bft)
25.12.2016 00:45 5,3 C 3,8 C 4,7 C 4,9 C 3,6 C 0,0 C 80 % 89 % 0 % 1022,1 hPa 0,0 l/m 7,7 km/h (2 Bft) W-SW 247 0 min 2,1 C 1,6 C 9,5 km/h (2 Bft)
25.12.2016 00:50 5,3 C 3,8 C 4,7 C 4,8 C 3,7 C 0,0 C 80 % 89 % 0 % 1022,1 hPa 0,0 l/m 7,6 km/h (2 Bft) O-SO 112 0 min 2,1 C 1,7 C 11,4 km/h (2 Bft)
25.12.2016 00:55 5,4 C 3,8 C 4,7 C 5,0 C 3,4 C 0,0 C 80 % 89 % 0 % 1022,1 hPa 0,0 l/m 8,5 km/h (2 Bft) SW 225 0 min 2,2 C 1,1 C 12,7 km/h (3 Bft)
25.12.2016 01:00 5,5 C 3,8 C 4,7 C 5,0 C 3,3 C 0,0 C 80 % 89 % 0 % 1022,1 hPa 0,0 l/m 9,8 km/h (2 Bft) SW 225 0 min 2,3 C 0,7 C 16,1 km/h (3 Bft)
25.12.2016 01:05 5,5 C 3,8 C 4,7 C 4,8 C 3,3 C 0,0 C 80 % 89 % 0 % 1022,1 hPa 0,0 l/m 9,8 km/h (2 Bft) W-SW 247 0 min 2,3 C 0,7 C 19,6 km/h (3 Bft)
25.12.2016 01:10 5,5 C 3,8 C 4,7 C 4,8 C 3,3 C 0,0 C 80 % 89 % 0 % 1022,1 hPa 0,0 l/m 9,7 km/h (2 Bft) SW 225 0 min 2,3 C 0,7 C 17,2 km/h (3 Bft)
25.12.2016 01:15 5,4 C 3,8 C 4,7 C 5,0 C 3,8 C 0,0 C 80 % 89 % 0 % 1022,1 hPa 0,0 l/m 8,2 km/h (2 Bft) W-SW 247 0 min 2,2 C 1,7 C 20,4 km/h (4 Bft)
25.12.2016 01:20 5,5 C 3,8 C 4,7 C 5,1 C 3,7 C 0,0 C 81 % 89 % 0 % 1022,1 hPa 0,0 l/m 8,5 km/h (2 Bft) SW 225 0 min 2,5 C 1,5 C 12,9 km/h (3 Bft)
25.12.2016 01:25 5,5 C 3,8 C 4,7 C 4,9 C 3,7 C 0,0 C 81 % 89 % 0 % 1022,1 hPa 0,0 l/m 9,3 km/h (2 Bft) W-SW 247 0 min 2,5 C 1,3 C 8,9 km/h (2 Bft)
25.12.2016 01:30 5,6 C 3,8 C 4,8 C 5,2 C 3,6 C 0,0 C 81 % 89 % 0 % 1022,1 hPa 0,0 l/m 9,5 km/h (2 Bft) W-SW 247 0 min 2,6 C 1,1 C 6,9 km/h (2 Bft)
25.12.2016 01:35 5,5 C 3,8 C 4,9 C 5,1 C 3,7 C 0,0 C 81 % 89 % 0 % 1022,1 hPa 0,0 l/m 9,3 km/h (2 Bft) SW 225 0 min 2,5 C 1,3 C 13,8 km/h (3 Bft)
25.12.2016 01:40 5,6 C 3,8 C 4,8 C 5,2 C 3,8 C 0,0 C 81 % 89 % 0 % 1022,0 hPa 0,0 l/m 8,9 km/h (2 Bft) W-SW 247 0 min 2,6 C 1,5 C 8,9 km/h (2 Bft)
25.12.2016 01:45 5,7 C 3,8 C 4,8 C 5,3 C 3,7 C 0,0 C 81 % 89 % 0 % 1022,0 hPa 0,0 l/m 10,0 km/h (2 Bft) SW 225 0 min 2,7 C 1,1 C 18,3 km/h (3 Bft)
25.12.2016 01:50 5,7 C 3,8 C 4,9 C 5,3 C 4,0 C 0,0 C 81 % 89 % 0 % 1022,0 hPa 0,0 l/m 9,3 km/h (2 Bft) SW 225 0 min 2,7 C 1,6 C 19,0 km/h (3 Bft)
25.12.2016 01:55 5,7 C 3,8 C 4,9 C 5,4 C 4,2 C 0,0 C 80 % 89 % 0 % 1022,0 hPa 0,0 l/m 8,5 km/h (2 Bft) W 270 0 min 2,5 C 2,1 C 6,9 km/h (2 Bft)
25.12.2016 02:00 5,7 C 3,8 C 4,9 C 5,4 C 4,3 C 0,0 C 80 % 89 % 0 % 1021,9 hPa 0,0 l/m 8,0 km/h (2 Bft) S-SO 157 0 min 2,5 C 2,3 C 7,6 km/h (2 Bft)
25.12.2016 02:05 5,6 C 3,8 C 4,9 C 5,2 C 4,3 C 0,0 C 81 % 89 % 0 % 1021,9 hPa 0,0 l/m 7,9 km/h (2 Bft) W-SW 247 0 min 2,6 C 2,3 C 12,4 km/h (3 Bft)
25.12.2016 02:10 5,7 C 3,8 C 5,1 C 5,4 C 4,1 C 0,0 C 81 % 89 % 0 % 1021,9 hPa 0,0 l/m 9,0 km/h (2 Bft) S-SW 202 0 min 2,7 C 1,8 C 8,9 km/h (2 Bft)
25.12.2016 02:15 5,7 C 3,8 C 5,1 C 5,4 C 3,9 C 0,0 C 80 % 89 % 0 % 1021,9 hPa 0,0 l/m 9,7 km/h (2 Bft) SW 225 0 min 2,5 C 1,4 C 9,8 km/h (2 Bft)
25.12.2016 02:20 5,7 C 3,8 C 5,1 C 5,4 C 4,2 C 0,0 C 81 % 89 % 0 % 1021,9 hPa 0,0 l/m 8,7 km/h (2 Bft) W-SW 247 0 min 2,7 C 2,0 C 11,7 km/h (2 Bft)
25.12.2016 02:25 5,7 C 3,9 C 5,1 C 5,4 C 4,3 C 0,0 C 81 % 89 % 0 % 1021,9 hPa 0,0 l/m 7,9 km/h (2 Bft) SW 225 0 min 2,7 C 2,3 C 10,0 km/h (2 Bft)
25.12.2016 02:30 5,7 C 3,9 C 5,1 C 5,2 C 4,3 C 0,0 C 81 % 89 % 0 % 1021,9 hPa 0,0 l/m 7,9 km/h (2 Bft) W-SW 247 0 min 2,7 C 2,3 C 5,5 km/h (1 Bft)
25.12.2016 02:35 5,7 C 3,9 C 5,1 C 5,2 C 4,3 C 0,0 C 81 % 89 % 0 % 1021,9 hPa 0,0 l/m 7,7 km/h (2 Bft) W-SW 247 0 min 2,7 C 2,4 C 11,3 km/h (2 Bft)
25.12.2016 02:40 5,7 C 3,9 C 5,1 C 5,2 C 4,3 C 0,0 C 81 % 89 % 0 % 1021,3 hPa 0,0 l/m 8,2 km/h (2 Bft) W-NW 292 0 min 2,7 C 2,3 C 14,6 km/h (3 Bft)
25.12.2016 02:45 5,9 C 3,9 C 5,1 C 5,5 C 4,2 C 0,0 C 81 % 89 % 0 % 1021,3 hPa 0,0 l/m 8,7 km/h (2 Bft) W-SW 247 0 min 2,9 C 2,0 C 6,4 km/h (2 Bft)
25.12.2016 02:50 5,9 C 3,9 C 5,1 C 5,6 C 4,3 C 0,0 C 81 % 89 % 0 % 1021,3 hPa 0,0 l/m 8,7 km/h (2 Bft) W-SW 247 0 min 2,9 C 2,1 C 12,2 km/h (2 Bft)
25.12.2016 02:55 5,9 C 3,9 C 5,2 C 5,4 C 4,3 C 0,0 C 81 % 89 % 0 % 1021,3 hPa 0,0 l/m 9,3 km/h (2 Bft) W 270 0 min 2,9 C 2,0 C 16,3 km/h (3 Bft)
25.12.2016 03:00 5,9 C 3,9 C 5,2 C 5,6 C 4,2 C 0,0 C 81 % 89 % 0 % 1021,3 hPa 0,0 l/m 10,1 km/h (2 Bft) SW 225 0 min 2,9 C 1,7 C 12,2 km/h (2 Bft)
25.12.2016 03:05 5,9 C 3,9 C 5,2 C 5,5 C 3,9 C 0,0 C 81 % 89 % 0 % 1021,3 hPa 0,0 l/m 11,1 km/h (2 Bft) W-SW 247 0 min 2,9 C 1,1 C 23,0 km/h (4 Bft)
25.12.2016 03:10 6,0 C 3,9 C 5,2 C 5,3 C 3,9 C 0,0 C 81 % 89 % 0 % 1021,3 hPa 0,0 l/m 11,1 km/h (2 Bft) SW 225 0 min 3,0 C 1,1 C 15,8 km/h (3 Bft)
25.12.2016 03:15 6,0 C 3,9 C 5,2 C 5,3 C 3,9 C 0,0 C 81 % 89 % 0 % 1021,3 hPa 0,0 l/m 11,6 km/h (2 Bft) SW 225 0 min 3,0 C 1,0 C 17,5 km/h (3 Bft)
25.12.2016 03:20 6,0 C 3,9 C 5,2 C 5,3 C 3,9 C 0,0 C 81 % 88 % 0 % 1021,3 hPa 0,0 l/m 11,1 km/h (2 Bft) S 180 0 min 3,0 C 1,1 C 12,1 km/h (2 Bft)
25.12.2016 03:25 6,0 C 3,9 C 5,3 C 5,6 C 4,0 C 0,0 C 81 % 88 % 0 % 1021,3 hPa 0,0 l/m 10,9 km/h (2 Bft) O 90 0 min 3,0 C 1,3 C 23,3 km/h (4 Bft)
25.12.2016 03:30 6,0 C 3,9 C 5,3 C 5,6 C 3,8 C 0,0 C 81 % 89 % 0 % 1021,3 hPa 0,0 l/m 11,3 km/h (2 Bft) S-SW 202 0 min 3,0 C 0,9 C 10,3 km/h (2 Bft)
25.12.2016 03:35 6,1 C 3,9 C 5,3 C 5,3 C 3,8 C 0,0 C 81 % 89 % 0 % 1021,3 hPa 0,0 l/m 11,3 km/h (2 Bft) SW 225 0 min 3,1 C 0,9 C 9,7 km/h (2 Bft)
25.12.2016 03:40 6,1 C 3,9 C 5,3 C 5,3 C 3,8 C 0,0 C 81 % 89 % 0 % 1021,2 hPa 0,0 l/m 11,3 km/h (2 Bft) SW 225 0 min 3,1 C 0,9 C 17,5 km/h (3 Bft)
25.12.2016 03:45 6,0 C 3,9 C 5,3 C 5,6 C 4,0 C 0,0 C 81 % 89 % 0 % 1021,2 hPa 0,0 l/m 10,9 km/h (2 Bft) SW 225 0 min 3,0 C 1,3 C 26,1 km/h (4 Bft)
25.12.2016 03:50 6,1 C 3,9 C 5,4 C 5,4 C 4,0 C 0,0 C 81 % 89 % 0 % 1021,2 hPa 0,0 l/m 11,7 km/h (2 Bft) S 180 0 min 3,1 C 1,1 C 11,9 km/h (2 Bft)
25.12.2016 03:55 6,1 C 3,9 C 5,5 C 5,7 C 4,2 C 0,0 C 81 % 89 % 0 % 1021,2 hPa 0,0 l/m 11,3 km/h (2 Bft) W 270 0 min 3,1 C 1,4 C 14,6 km/h (3 Bft)
25.12.2016 04:00 6,1 C 3,9 C 5,5 C 5,7 C 4,3 C 0,0 C 81 % 89 % 0 % 1021,3 hPa 0,0 l/m 10,5 km/h (2 Bft) NW 315 0 min 3,1 C 1,7 C 9,8 km/h (2 Bft)
25.12.2016 04:05 6,2 C 4,1 C 5,5 C 5,6 C 4,3 C 0,0 C 81 % 88 % 0 % 1021,3 hPa 0,0 l/m 10,6 km/h (2 Bft) S-SW 202 0 min 3,2 C 1,7 C 11,6 km/h (2 Bft)
25.12.2016 04:10 6,3 C 4,1 C 5,4 C 5,9 C 4,4 C 0,0 C 81 % 88 % 0 % 1021,3 hPa 0,0 l/m 10,3 km/h (2 Bft) SW 225 0 min 3,3 C 1,9 C 11,4 km/h (2 Bft)
25.12.2016 04:15 6,3 C 4,1 C 5,5 C 5,9 C 4,6 C 0,0 C 81 % 89 % 0 % 1021,3 hPa 0,0 l/m 9,2 km/h (2 Bft) SW 225 0 min 3,3 C 2,4 C 12,4 km/h (3 Bft)
25.12.2016 04:20 6,3 C 4,1 C 5,4 C 6,0 C 4,7 C 0,0 C 81 % 89 % 0 % 1021,1 hPa 0,0 l/m 9,0 km/h (2 Bft) S-SW 202 0 min 3,3 C 2,5 C 13,7 km/h (3 Bft)
25.12.2016 04:25 6,1 C 4,1 C 5,4 C 5,8 C 4,6 C 0,0 C 81 % 88 % 0 % 1021,1 hPa 0,0 l/m 9,2 km/h (2 Bft) SW 225 0 min 3,1 C 2,4 C 18,0 km/h (3 Bft)
25.12.2016 04:30 6,1 C 4,1 C 5,5 C 5,8 C 4,8 C 0,0 C 81 % 88 % 0 % 1021,1 hPa 0,0 l/m 8,5 km/h (2 Bft) SW 225 0 min 3,1 C 2,8 C 7,2 km/h (2 Bft)
25.12.2016 04:35 6,1 C 4,1 C 5,5 C 5,8 C 4,6 C 0,0 C 81 % 89 % 0 % 1021,1 hPa 0,0 l/m 8,7 km/h (2 Bft) S 180 0 min 3,1 C 2,5 C 10,8 km/h (2 Bft)
25.12.2016 04:40 6,1 C 4,1 C 5,4 C 5,6 C 4,6 C 0,0 C 81 % 88 % 0 % 1020,6 hPa 0,0 l/m 8,7 km/h (2 Bft) W 270 0 min 3,1 C 2,5 C 6,4 km/h (2 Bft)
25.12.2016 04:45 6,1 C 4,1 C 5,4 C 5,6 C 4,6 C 0,0 C 81 % 88 % 0 % 1020,6 hPa 0,0 l/m 8,9 km/h (2 Bft) W-SW 247 0 min 3,1 C 2,4 C 16,4 km/h (3 Bft)
25.12.2016 04:50 6,1 C 4,1 C 5,5 C 5,6 C 4,6 C 0,0 C 81 % 89 % 0 % 1020,6 hPa 0,0 l/m 9,0 km/h (2 Bft) SW 225 0 min 3,1 C 2,4 C 10,8 km/h (2 Bft)
25.12.2016 04:55 6,2 C 4,1 C 5,4 C 5,7 C 4,6 C 0,0 C 81 % 88 % 0 % 1020,6 hPa 0,0 l/m 9,3 km/h (2 Bft) W-SW 247 0 min 3,2 C 2,3 C 10,6 km/h (2 Bft)
25.12.2016 05:00 6,2 C 4,1 C 5,5 C 5,9 C 4,7 C 0,0 C 81 % 88 % 0 % 1020,6 hPa 0,0 l/m 8,9 km/h (2 Bft) W-SW 247 0 min 3,2 C 2,6 C 8,5 km/h (2 Bft)
25.12.2016 05:05 6,3 C 4,1 C 5,5 C 5,9 C 4,5 C 0,0 C 81 % 88 % 0 % 1020,6 hPa 0,0 l/m 9,7 km/h (2 Bft) SW 225 0 min 3,3 C 2,1 C 13,8 km/h (3 Bft)
25.12.2016 05:10 6,3 C 4,1 C 5,5 C 5,9 C 4,6 C 0,0 C 81 % 88 % 0 % 1020,6 hPa 0,0 l/m 9,3 km/h (2 Bft) W-SW 247 0 min 3,3 C 2,3 C 11,7 km/h (2 Bft)
25.12.2016 05:15 6,2 C 4,1 C 5,6 C 5,7 C 4,6 C 0,0 C 81 % 88 % 0 % 1020,6 hPa 0,0 l/m 9,2 km/h (2 Bft) W-SW 247 0 min 3,2 C 2,4 C 17,9 km/h (3 Bft)
25.12.2016 05:20 6,2 C 4,1 C 5,6 C 5,9 C 4,7 C 0,0 C 81 % 88 % 0 % 1020,9 hPa 0,0 l/m 9,5 km/h (2 Bft) S 180 0 min 3,2 C 2,4 C 8,4 km/h (2 Bft)
25.12.2016 05:25 6,3 C 4,1 C 5,5 C 5,9 C 4,4 C 0,0 C 82 % 88 % 0 % 1020,9 hPa 0,0 l/m 8,9 km/h (2 Bft) S-SW 202 0 min 3,5 C 2,2 C 9,2 km/h (2 Bft)
25.12.2016 05:30 6,3 C 4,1 C 5,6 C 5,7 C 4,4 C 0,0 C 82 % 88 % 0 % 1020,9 hPa 0,0 l/m 8,9 km/h (2 Bft) SW 225 0 min 3,5 C 2,2 C 12,2 km/h (2 Bft)
25.12.2016 05:35 6,3 C 4,1 C 5,6 C 5,9 C 4,6 C 0,0 C 82 % 88 % 0 % 1020,9 hPa 0,0 l/m 8,9 km/h (2 Bft) W 270 0 min 3,5 C 2,4 C 9,8 km/h (2 Bft)
25.12.2016 05:40 6,3 C 4,1 C 5,6 C 6,0 C 4,7 C 0,0 C 82 % 88 % 0 % 1020,7 hPa 0,0 l/m 9,0 km/h (2 Bft) W-SW 247 0 min 3,5 C 2,5 C 14,0 km/h (3 Bft)
25.12.2016 05:45 6,3 C 4,2 C 5,6 C 5,9 C 4,4 C 0,0 C 82 % 88 % 0 % 1020,7 hPa 0,0 l/m 10,6 km/h (2 Bft) W-SW 247 0 min 3,5 C 1,8 C 15,8 km/h (3 Bft)
25.12.2016 05:50 6,3 C 4,2 C 5,6 C 5,9 C 4,3 C 0,0 C 82 % 88 % 0 % 1020,7 hPa 0,0 l/m 11,3 km/h (2 Bft) W-SW 247 0 min 3,5 C 1,5 C 12,6 km/h (3 Bft)
25.12.2016 05:55 6,3 C 4,2 C 5,6 C 5,6 C 4,3 C 0,0 C 82 % 88 % 0 % 1020,7 hPa 0,0 l/m 11,1 km/h (2 Bft) W-SW 247 0 min 3,5 C 1,6 C 12,9 km/h (3 Bft)
25.12.2016 06:00 6,3 C 4,2 C 5,6 C 5,9 C 4,6 C 0,0 C 82 % 88 % 0 % 1020,9 hPa 0,0 l/m 10,1 km/h (2 Bft) W-SW 247 0 min 3,5 C 2,2 C 12,2 km/h (2 Bft)
25.12.2016 06:05 6,4 C 4,2 C 5,6 C 5,8 C 4,6 C 0,0 C 82 % 88 % 0 % 1020,9 hPa 0,0 l/m 10,1 km/h (2 Bft) W-SW 247 0 min 3,6 C 2,2 C 9,2 km/h (2 Bft)
25.12.2016 06:10 6,3 C 4,2 C 5,7 C 6,0 C 4,7 C 0,0 C 82 % 88 % 0 % 1020,9 hPa 0,0 l/m 10,0 km/h (2 Bft) W 270 0 min 3,5 C 2,3 C 11,4 km/h (2 Bft)
25.12.2016 06:15 6,3 C 4,2 C 5,6 C 5,8 C 4,7 C 0,0 C 82 % 88 % 0 % 1020,9 hPa 0,0 l/m 9,3 km/h (2 Bft) W-SW 247 0 min 3,5 C 2,5 C 12,6 km/h (3 Bft)
25.12.2016 06:20 6,4 C 4,2 C 5,6 C 6,1 C 4,8 C 0,0 C 81 % 88 % 0 % 1021,2 hPa 0,0 l/m 9,2 km/h (2 Bft) W 270 0 min 3,4 C 2,6 C 8,2 km/h (2 Bft)
25.12.2016 06:25 6,4 C 4,2 C 5,6 C 6,1 C 4,9 C 0,0 C 81 % 88 % 0 % 1021,2 hPa 0,0 l/m 9,3 km/h (2 Bft) SW 225 0 min 3,4 C 2,7 C 16,7 km/h (3 Bft)
25.12.2016 06:30 6,3 C 4,2 C 5,6 C 5,8 C 4,9 C 0,0 C 81 % 88 % 0 % 1021,2 hPa 0,0 l/m 8,4 km/h (2 Bft) SW 225 0 min 3,3 C 2,9 C 10,9 km/h (2 Bft)
25.12.2016 06:35 6,3 C 4,2 C 5,7 C 5,9 C 5,1 C 0,0 C 81 % 88 % 0 % 1021,2 hPa 0,0 l/m 7,6 km/h (2 Bft) O 90 0 min 3,3 C 3,4 C 5,0 km/h (1 Bft)
25.12.2016 06:40 6,3 C 4,2 C 5,7 C 5,9 C 5,1 C 0,0 C 82 % 88 % 0 % 1020,8 hPa 0,0 l/m 7,1 km/h (2 Bft) W-SW 247 0 min 3,5 C 3,5 C 9,0 km/h (2 Bft)
25.12.2016 06:45 6,2 C 4,2 C 5,6 C 5,9 C 5,4 C 0,0 C 82 % 89 % 0 % 1020,8 hPa 0,0 l/m 6,1 km/h (2 Bft) SW 225 0 min 3,4 C 4,2 C 10,3 km/h (2 Bft)
25.12.2016 06:50 6,3 C 4,2 C 5,6 C 6,0 C 5,3 C 0,0 C 82 % 89 % 0 % 1020,8 hPa 0,0 l/m 6,3 km/h (2 Bft) SW 225 0 min 3,5 C 4,0 C 5,6 km/h (1 Bft)
25.12.2016 06:55 6,2 C 4,2 C 5,5 C 5,9 C 5,4 C 0,0 C 82 % 89 % 0 % 1020,8 hPa 0,0 l/m 6,1 km/h (2 Bft) W-SW 247 0 min 3,4 C 4,2 C 16,9 km/h (3 Bft)
25.12.2016 07:00 6,1 C 4,2 C 5,5 C 5,8 C 5,3 C 0,0 C 82 % 89 % 0 % 1021,4 hPa 0,0 l/m 6,4 km/h (2 Bft) W-SW 247 0 min 3,3 C 3,9 C 7,1 km/h (2 Bft)
25.12.2016 07:05 6,1 C 4,2 C 5,6 C 5,8 C 5,2 C 0,0 C 82 % 89 % 0 % 1021,4 hPa 0,0 l/m 6,8 km/h (2 Bft) NW 315 0 min 3,3 C 3,7 C 10,1 km/h (2 Bft)
25.12.2016 07:10 6,1 C 4,2 C 5,5 C 5,8 C 5,2 C 0,0 C 82 % 89 % 0 % 1021,4 hPa 0,0 l/m 6,8 km/h (2 Bft) W-NW 292 0 min 3,3 C 3,7 C 13,0 km/h (3 Bft)
25.12.2016 07:15 6,1 C 4,2 C 5,6 C 5,8 C 5,1 C 0,0 C 82 % 89 % 0 % 1021,4 hPa 0,0 l/m 7,2 km/h (2 Bft) S-SW 202 0 min 3,3 C 3,5 C 7,6 km/h (2 Bft)
25.12.2016 07:20 6,1 C 4,2 C 5,6 C 5,9 C 4,8 C 0,0 C 82 % 89 % 0 % 1021,4 hPa 0,0 l/m 7,7 km/h (2 Bft) S-SW 202 0 min 3,3 C 3,0 C 8,2 km/h (2 Bft)
25.12.2016 07:25 6,1 C 4,3 C 5,6 C 5,8 C 4,6 C 0,0 C 82 % 89 % 0 % 1021,4 hPa 0,0 l/m 8,4 km/h (2 Bft) SW 225 0 min 3,3 C 2,6 C 10,8 km/h (2 Bft)
25.12.2016 07:30 6,1 C 4,3 C 5,6 C 5,8 C 4,5 C 0,0 C 82 % 89 % 0 % 1021,4 hPa 0,0 l/m 8,4 km/h (2 Bft) W-SW 247 0 min 3,3 C 2,4 C 10,9 km/h (2 Bft)
25.12.2016 07:35 6,0 C 4,3 C 5,6 C 5,6 C 4,2 C 0,0 C 82 % 89 % 0 % 1021,4 hPa 0,0 l/m 9,2 km/h (2 Bft) W-SW 247 0 min 3,2 C 1,9 C 9,7 km/h (2 Bft)
25.12.2016 07:40 6,1 C 4,3 C 5,6 C 5,7 C 4,3 C 0,0 C 82 % 89 % 0 % 1020,8 hPa 0,0 l/m 9,0 km/h (2 Bft) S 180 0 min 3,3 C 2,1 C 9,7 km/h (2 Bft)
25.12.2016 07:45 6,1 C 4,3 C 5,6 C 5,7 C 4,5 C 0,0 C 82 % 89 % 0 % 1020,8 hPa 0,0 l/m 8,2 km/h (2 Bft) S 180 0 min 3,3 C 2,5 C 10,0 km/h (2 Bft)
25.12.2016 07:50 6,1 C 4,3 C 5,6 C 5,8 C 4,4 C 0,0 C 82 % 89 % 0 % 1020,8 hPa 0,0 l/m 9,0 km/h (2 Bft) SW 225 0 min 3,3 C 2,2 C 8,9 km/h (2 Bft)
25.12.2016 07:55 6,3 C 4,3 C 5,7 C 5,9 C 4,6 C 0,0 C 82 % 89 % 0 % 1020,8 hPa 0,0 l/m 10,0 km/h (2 Bft) SW 225 0 min 3,5 C 2,2 C 10,9 km/h (2 Bft)
25.12.2016 08:00 6,3 C 4,3 C 5,7 C 6,0 C 4,9 C 0,0 C 82 % 89 % 0 % 1020,3 hPa 0,0 l/m 8,9 km/h (2 Bft) SW 225 0 min 3,5 C 2,8 C 6,3 km/h (2 Bft)
25.12.2016 08:05 6,3 C 4,3 C 5,9 C 5,8 C 4,9 C 0,0 C 82 % 89 % 0 % 1020,3 hPa 0,0 l/m 8,9 km/h (2 Bft) W-SW 247 0 min 3,5 C 2,8 C 12,7 km/h (3 Bft)
25.12.2016 08:10 6,3 C 4,3 C 5,7 C 5,8 C 4,9 C 0,0 C 82 % 89 % 0 % 1020,3 hPa 0,0 l/m 9,2 km/h (2 Bft) SW 225 0 min 3,5 C 2,7 C 13,4 km/h (3 Bft)
25.12.2016 08:15 6,3 C 4,3 C 5,9 C 6,0 C 4,8 C 0,0 C 82 % 89 % 0 % 1020,3 hPa 0,0 l/m 9,5 km/h (2 Bft) S-SW 202 0 min 3,5 C 2,5 C 12,1 km/h (2 Bft)
25.12.2016 08:20 6,3 C 4,3 C 5,9 C 6,1 C 5,1 C 0,0 C 82 % 89 % 0 % 1020,3 hPa 0,0 l/m 8,5 km/h (2 Bft) W-SW 247 0 min 3,5 C 3,1 C 16,4 km/h (3 Bft)
25.12.2016 08:25 6,3 C 4,3 C 5,8 C 6,0 C 5,3 C 0,0 C 82 % 89 % 0 % 1020,3 hPa 0,0 l/m 7,4 km/h (2 Bft) SW 225 0 min 3,5 C 3,6 C 12,6 km/h (3 Bft)
25.12.2016 08:30 6,3 C 4,3 C 5,9 C 6,0 C 5,3 C 0,0 C 82 % 89 % 0 % 1020,3 hPa 0,0 l/m 7,4 km/h (2 Bft) W-SW 247 0 min 3,5 C 3,6 C 10,6 km/h (2 Bft)
25.12.2016 08:35 6,3 C 4,3 C 5,9 C 6,0 C 5,3 C 0,0 C 82 % 89 % 0 % 1020,3 hPa 0,0 l/m 7,4 km/h (2 Bft) SW 225 0 min 3,5 C 3,6 C 7,6 km/h (2 Bft)
25.12.2016 08:40 6,3 C 4,3 C 5,8 C 6,0 C 5,3 C 0,0 C 82 % 89 % 0 % 1020,3 hPa 0,0 l/m 7,4 km/h (2 Bft) SW 225 0 min 3,5 C 3,6 C 10,5 km/h (2 Bft)
25.12.2016 08:45 6,3 C 4,3 C 5,9 C 6,0 C 5,3 C 0,0 C 82 % 89 % 0 % 1020,3 hPa 0,0 l/m 7,7 km/h (2 Bft) W-SW 247 0 min 3,5 C 3,6 C 13,7 km/h (3 Bft)
25.12.2016 08:50 6,3 C 4,3 C 5,9 C 6,0 C 5,3 C 0,0 C 82 % 89 % 0 % 1020,3 hPa 0,0 l/m 7,4 km/h (2 Bft) SW 225 0 min 3,5 C 3,6 C 10,6 km/h (2 Bft)
25.12.2016 08:55 6,4 C 4,3 C 5,9 C 6,1 C 5,5 C 0,0 C 82 % 89 % 0 % 1020,3 hPa 0,0 l/m 6,8 km/h (2 Bft) W 270 0 min 3,6 C 4,1 C 6,4 km/h (2 Bft)
25.12.2016 09:00 6,5 C 4,3 C 6,0 C 6,2 C 5,6 C 0,0 C 82 % 89 % 0 % 1020,6 hPa 0,0 l/m 6,4 km/h (2 Bft) SO 135 0 min 3,7 C 4,3 C 9,5 km/h (2 Bft)
25.12.2016 09:05 6,4 C 4,3 C 6,0 C 6,2 C 5,7 C 0,0 C 82 % 89 % 0 % 1020,6 hPa 0,0 l/m 6,6 km/h (2 Bft) S 180 0 min 3,6 C 4,3 C 10,3 km/h (2 Bft)
25.12.2016 09:10 6,5 C 4,3 C 6,1 C 6,2 C 5,7 C 0,0 C 82 % 89 % 0 % 1020,6 hPa 0,0 l/m 7,1 km/h (2 Bft) W-SW 247 0 min 3,7 C 4,2 C 7,7 km/h (2 Bft)
25.12.2016 09:15 6,5 C 4,3 C 6,1 C 6,2 C 5,7 C 0,0 C 82 % 89 % 0 % 1020,6 hPa 0,0 l/m 6,9 km/h (2 Bft) SW 225 0 min 3,7 C 4,3 C 9,0 km/h (2 Bft)
25.12.2016 09:20 6,5 C 4,4 C 6,0 C 6,2 C 5,7 C 0,0 C 82 % 89 % 0 % 1020,9 hPa 0,0 l/m 6,9 km/h (2 Bft) S-SO 157 0 min 3,7 C 4,3 C 12,1 km/h (2 Bft)
25.12.2016 09:25 6,7 C 4,4 C 6,1 C 6,4 C 5,7 C 0,0 C 82 % 88 % 0 % 1020,9 hPa 0,0 l/m 7,7 km/h (2 Bft) W-SW 247 0 min 3,8 C 4,0 C 10,8 km/h (2 Bft)
25.12.2016 09:30 6,7 C 4,4 C 6,1 C 6,4 C 5,7 C 0,0 C 82 % 88 % 0 % 1020,9 hPa 0,0 l/m 7,9 km/h (2 Bft) W-SW 247 0 min 3,8 C 4,0 C 10,1 km/h (2 Bft)
25.12.2016 09:35 6,8 C 4,4 C 6,3 C 6,6 C 5,8 C 0,0 C 82 % 88 % 0 % 1020,9 hPa 0,0 l/m 8,2 km/h (2 Bft) SW 225 0 min 3,9 C 4,0 C 8,0 km/h (2 Bft)
25.12.2016 09:40 6,8 C 4,4 C 6,3 C 6,6 C 5,9 C 0,0 C 81 % 88 % 0 % 1021,5 hPa 0,0 l/m 7,9 km/h (2 Bft) W-SW 247 0 min 3,8 C 4,2 C 11,9 km/h (2 Bft)
25.12.2016 09:45 6,9 C 4,4 C 6,4 C 6,7 C 6,2 C 0,0 C 81 % 88 % 0 % 1021,5 hPa 0,0 l/m 7,2 km/h (2 Bft) SW 225 0 min 3,9 C 4,8 C 6,8 km/h (2 Bft)
25.12.2016 09:50 7,0 C 4,4 C 6,5 C 6,7 C 6,2 C 0,0 C 81 % 88 % 0 % 1021,5 hPa 0,0 l/m 7,2 km/h (2 Bft) S-SO 157 0 min 4,0 C 4,8 C 5,3 km/h (1 Bft)
25.12.2016 09:55 7,0 C 4,4 C 6,5 C 6,9 C 6,1 C 0,0 C 81 % 88 % 0 % 1021,5 hPa 0,0 l/m 7,9 km/h (2 Bft) W-SW 247 0 min 4,0 C 4,5 C 12,2 km/h (2 Bft)
25.12.2016 10:00 7,1 C 4,4 C 6,7 C 7,0 C 6,2 C 0,0 C 81 % 88 % 0 % 1021,1 hPa 0,0 l/m 8,5 km/h (2 Bft) S 180 0 min 4,1 C 4,4 C 8,2 km/h (2 Bft)
25.12.2016 10:05 7,2 C 4,4 C 6,7 C 6,9 C 6,2 C 0,0 C 81 % 87 % 0 % 1021,1 hPa 0,0 l/m 9,2 km/h (2 Bft) W-SW 247 0 min 4,2 C 4,3 C 13,8 km/h (3 Bft)
25.12.2016 10:10 7,3 C 4,4 C 6,7 C 7,1 C 6,1 C 0,0 C 81 % 87 % 0 % 1021,1 hPa 0,0 l/m 9,3 km/h (2 Bft) W-SW 247 0 min 4,3 C 4,1 C 11,9 km/h (2 Bft)
25.12.2016 10:15 7,2 C 4,4 C 6,7 C 6,9 C 5,7 C 0,0 C 81 % 88 % 0 % 1021,1 hPa 0,0 l/m 9,0 km/h (2 Bft) W-SW 247 0 min 4,2 C 3,7 C 6,1 km/h (2 Bft)
25.12.2016 10:20 7,1 C 4,4 C 6,7 C 6,6 C 5,7 C 0,0 C 82 % 88 % 0 % 1021,1 hPa 0,0 l/m 8,7 km/h (2 Bft) SW 225 0 min 4,2 C 3,8 C 6,9 km/h (2 Bft)
25.12.2016 10:25 6,9 C 4,4 C 6,5 C 6,6 C 5,5 C 0,0 C 82 % 88 % 0 % 1021,1 hPa 0,0 l/m 8,4 km/h (2 Bft) S 180 0 min 4,0 C 3,6 C 13,2 km/h (3 Bft)
25.12.2016 10:30 6,8 C 4,5 C 6,5 C 6,5 C 5,4 C 0,0 C 82 % 89 % 0 % 1021,1 hPa 0,0 l/m 8,2 km/h (2 Bft) W-SW 247 0 min 3,9 C 3,6 C 9,0 km/h (2 Bft)
25.12.2016 10:35 6,7 C 4,5 C 6,5 C 6,3 C 5,4 C 0,0 C 83 % 89 % 0 % 1021,1 hPa 0,0 l/m 7,7 km/h (2 Bft) SW 225 0 min 4,0 C 3,7 C 10,3 km/h (2 Bft)
25.12.2016 10:40 6,7 C 4,5 C 6,4 C 6,2 C 5,3 C 0,0 C 83 % 89 % 0 % 1021,4 hPa 0,0 l/m 7,4 km/h (2 Bft) SW 225 0 min 4,0 C 3,6 C 10,3 km/h (2 Bft)
25.12.2016 10:45 6,4 C 4,5 C 6,3 C 6,0 C 5,2 C 0,0 C 83 % 89 % 0 % 1021,4 hPa 0,0 l/m 7,6 km/h (2 Bft) SW 225 0 min 3,7 C 3,5 C 10,1 km/h (2 Bft)
25.12.2016 10:50 6,5 C 4,5 C 6,3 C 6,0 C 5,1 C 0,0 C 84 % 90 % 0 % 1021,4 hPa 0,0 l/m 7,6 km/h (2 Bft) N-NO 22 0 min 4,0 C 3,4 C 4,5 km/h (1 Bft)
25.12.2016 10:55 6,3 C 4,5 C 6,2 C 5,9 C 5,1 C 0,0 C 84 % 90 % 0 % 1021,4 hPa 0,0 l/m 7,7 km/h (2 Bft) W-SW 247 0 min 3,8 C 3,3 C 11,6 km/h (2 Bft)
25.12.2016 11:00 6,3 C 4,5 C 6,3 C 6,0 C 4,9 C 0,0 C 84 % 90 % 0 % 1020,8 hPa 0,0 l/m 7,7 km/h (2 Bft) W-SW 247 0 min 3,8 C 3,1 C 10,0 km/h (2 Bft)
25.12.2016 11:05 6,2 C 4,5 C 6,1 C 5,9 C 4,8 C 0,0 C 84 % 90 % 0 % 1020,8 hPa 0,0 l/m 8,5 km/h (2 Bft) W-SW 247 0 min 3,7 C 2,8 C 17,1 km/h (3 Bft)
25.12.2016 11:10 6,1 C 4,5 C 6,1 C 5,7 C 4,8 C 0,0 C 84 % 90 % 0 % 1020,8 hPa 0,0 l/m 8,4 km/h (2 Bft) SW 225 0 min 3,6 C 2,8 C 8,4 km/h (2 Bft)
25.12.2016 11:15 6,0 C 4,5 C 6,1 C 5,8 C 4,9 C 0,0 C 84 % 90 % 0 % 1020,8 hPa 0,0 l/m 7,9 km/h (2 Bft) S-SW 202 0 min 3,5 C 3,0 C 7,7 km/h (2 Bft)
25.12.2016 11:20 5,9 C 4,6 C 6,1 C 5,6 C 4,9 C 0,0 C 84 % 90 % 0 % 1021,5 hPa 0,0 l/m 7,9 km/h (2 Bft) W-SW 247 0 min 3,4 C 3,0 C 11,3 km/h (2 Bft)
25.12.2016 11:25 5,8 C 4,6 C 6,1 C 5,6 C 4,6 C 0,0 C 85 % 90 % 0 % 1021,5 hPa 0,7 l/m 9,2 km/h (2 Bft) W-SW 247 0 min 3,5 C 2,4 C 12,7 km/h (3 Bft)
25.12.2016 11:30 5,7 C 4,6 C 6,1 C 5,5 C 4,5 C 0,0 C 85 % 89 % 0 % 1021,5 hPa 0,0 l/m 9,7 km/h (2 Bft) W-SW 247 0 min 3,4 C 2,1 C 15,4 km/h (3 Bft)
25.12.2016 11:35 5,6 C 4,6 C 6,1 C 5,5 C 4,7 C 0,0 C 85 % 88 % 0 % 1021,5 hPa 0,0 l/m 9,0 km/h (2 Bft) SW 225 0 min 3,3 C 2,5 C 9,7 km/h (2 Bft)
25.12.2016 11:40 5,6 C 4,6 C 6,1 C 5,3 C 4,7 C 0,0 C 85 % 88 % 0 % 1021,5 hPa 0,0 l/m 8,9 km/h (2 Bft) W-SW 247 0 min 3,3 C 2,6 C 9,8 km/h (2 Bft)
25.12.2016 11:45 5,6 C 4,6 C 6,1 C 5,5 C 4,9 C 0,0 C 85 % 87 % 0 % 1021,5 hPa 0,0 l/m 7,7 km/h (2 Bft) SW 225 0 min 3,3 C 3,1 C 8,4 km/h (2 Bft)
25.12.2016 11:50 5,5 C 4,6 C 6,0 C 5,3 C 5,0 C 0,0 C 85 % 87 % 0 % 1021,5 hPa 0,0 l/m 6,9 km/h (2 Bft) SW 225 0 min 3,2 C 3,4 C 13,0 km/h (3 Bft)
25.12.2016 11:55 5,5 C 4,6 C 6,0 C 5,4 C 5,3 C 0,0 C 85 % 86 % 0 % 1021,5 hPa 0,0 l/m 6,0 km/h (2 Bft) SW 225 0 min 3,2 C 4,1 C 3,5 km/h (1 Bft)
25.12.2016 12:00 5,3 C 4,7 C 6,0 C 5,3 C 5,3 C 0,0 C 85 % 85 % 0 % 1021,5 hPa 0,0 l/m 5,5 km/h (1 Bft) W 270 0 min 3,0 C 4,2 C 5,8 km/h (2 Bft)
25.12.2016 12:05 5,2 C 4,7 C 6,0 C 5,4 C 5,4 C 0,2 C 85 % 84 % 5 % 1021,5 hPa 0,7 l/m 5,1 km/h (1 Bft) O-SO 112 0 min 2,9 C 4,5 C 10,0 km/h (2 Bft)
25.12.2016 12:10 5,3 C 4,7 C 6,1 C 5,3 C 5,3 C 0,0 C 85 % 84 % 0 % 1021,5 hPa 0,0 l/m 5,5 km/h (1 Bft) S 180 0 min 3,0 C 4,2 C 6,8 km/h (2 Bft)
25.12.2016 12:15 5,2 C 4,7 C 6,0 C 5,6 C 5,6 C 0,4 C 85 % 83 % 11 % 1021,5 hPa 0,0 l/m 4,8 km/h (1 Bft) O-SO 112 0 min 2,9 C 4,8 C 2,6 km/h (1 Bft)
25.12.2016 12:20 5,1 C 4,7 C 5,9 C 5,8 C 5,8 C 0,7 C 85 % 83 % 18 % 1021,0 hPa 0,0 l/m 4,3 km/h (1 Bft) S 180 0 min 2,8 C 5,8 C 3,7 km/h (1 Bft)
25.12.2016 12:25 5,0 C 4,7 C 5,9 C 6,1 C 6,1 C 1,1 C 86 % 82 % 29 % 1021,0 hPa 0,0 l/m 3,5 km/h (1 Bft) W-NW 292 0 min 2,9 C 6,1 C 1,6 km/h (1 Bft)
25.12.2016 12:30 5,1 C 4,7 C 5,9 C 6,2 C 6,2 C 1,1 C 86 % 82 % 29 % 1021,0 hPa 0,0 l/m 2,9 km/h (1 Bft) W-SW 247 0 min 3,0 C 6,2 C 3,7 km/h (1 Bft)
25.12.2016 12:35 5,1 C 4,7 C 5,9 C 6,3 C 6,3 C 1,2 C 86 % 81 % 32 % 1021,0 hPa 0,0 l/m 2,6 km/h (1 Bft) O-NO 67 0 min 3,0 C 6,3 C 2,1 km/h (1 Bft)
25.12.2016 12:40 5,1 C 4,7 C 6,0 C 6,3 C 6,3 C 1,2 C 86 % 81 % 32 % 1020,1 hPa 0,0 l/m 2,9 km/h (1 Bft) O 90 0 min 3,0 C 6,3 C 4,2 km/h (1 Bft)
25.12.2016 12:45 5,1 C 4,7 C 6,0 C 6,4 C 6,4 C 1,3 C 86 % 80 % 34 % 1020,1 hPa 0,0 l/m 3,4 km/h (1 Bft) SW 225 0 min 3,0 C 6,4 C 11,3 km/h (2 Bft)
25.12.2016 12:50 5,1 C 4,7 C 6,0 C 6,2 C 6,2 C 1,1 C 86 % 80 % 29 % 1020,1 hPa 0,0 l/m 4,0 km/h (1 Bft) W 270 0 min 3,0 C 6,2 C 2,7 km/h (1 Bft)
25.12.2016 12:55 5,2 C 4,7 C 6,2 C 6,0 C 6,0 C 0,8 C 86 % 80 % 21 % 1020,1 hPa 0,0 l/m 5,1 km/h (1 Bft) S 180 0 min 3,1 C 5,2 C 10,6 km/h (2 Bft)
25.12.2016 13:00 5,2 C 4,7 C 6,2 C 6,1 C 6,1 C 0,9 C 86 % 80 % 24 % 1019,8 hPa 0,0 l/m 5,0 km/h (1 Bft) O-NO 67 0 min 3,1 C 5,3 C 4,7 km/h (1 Bft)
25.12.2016 13:05 5,3 C 4,7 C 6,3 C 5,8 C 5,8 C 0,5 C 86 % 79 % 13 % 1019,8 hPa 0,0 l/m 6,8 km/h (2 Bft) W-SW 247 0 min 3,2 C 4,4 C 8,5 km/h (2 Bft)
25.12.2016 13:10 5,5 C 4,7 C 6,2 C 6,2 C 5,7 C 0,7 C 86 % 79 % 18 % 1019,8 hPa 0,0 l/m 8,2 km/h (2 Bft) SW 225 0 min 3,3 C 3,9 C 9,5 km/h (2 Bft)
25.12.2016 13:15 5,6 C 4,7 C 6,3 C 6,3 C 5,8 C 0,7 C 85 % 79 % 18 % 1019,8 hPa 0,0 l/m 8,7 km/h (2 Bft) SW 225 0 min 3,3 C 3,9 C 7,2 km/h (2 Bft)
25.12.2016 13:20 5,9 C 4,7 C 6,3 C 6,5 C 6,1 C 0,6 C 85 % 78 % 16 % 1020,5 hPa 0,0 l/m 7,7 km/h (2 Bft) W-SW 247 0 min 3,6 C 4,5 C 11,6 km/h (2 Bft)
25.12.2016 13:25 6,0 C 4,7 C 6,5 C 6,8 C 6,4 C 0,8 C 85 % 79 % 21 % 1020,5 hPa 0,0 l/m 7,9 km/h (2 Bft) W 270 0 min 3,7 C 4,8 C 11,3 km/h (2 Bft)
25.12.2016 13:30 6,2 C 4,7 C 6,5 C 7,0 C 6,6 C 0,8 C 85 % 79 % 21 % 1020,5 hPa 0,0 l/m 8,4 km/h (2 Bft) SW 225 0 min 3,9 C 4,9 C 8,5 km/h (2 Bft)
25.12.2016 13:35 6,5 C 4,7 C 6,7 C 7,1 C 6,5 C 0,6 C 85 % 78 % 16 % 1020,5 hPa 0,0 l/m 9,3 km/h (2 Bft) W-SW 247 0 min 4,2 C 4,6 C 11,7 km/h (2 Bft)
25.12.2016 13:40 6,8 C 4,7 C 6,8 C 6,7 C 6,5 C 0,0 C 84 % 78 % 0 % 1020,5 hPa 0,0 l/m 10,9 km/h (2 Bft) SW 225 0 min 4,3 C 4,3 C 24,5 km/h (4 Bft)
25.12.2016 13:45 7,2 C 4,7 C 7,0 C 7,4 C 6,8 C 0,2 C 84 % 79 % 5 % 1020,5 hPa 0,0 l/m 12,1 km/h (2 Bft) SW 225 0 min 4,7 C 4,4 C 18,0 km/h (3 Bft)
25.12.2016 13:50 7,4 C 4,7 C 7,1 C 7,6 C 7,1 C 0,2 C 83 % 79 % 5 % 1020,5 hPa 0,0 l/m 11,7 km/h (2 Bft) W-SW 247 0 min 4,7 C 4,9 C 12,9 km/h (3 Bft)
25.12.2016 13:55 7,6 C 4,7 C 7,1 C 7,9 C 7,4 C 0,3 C 83 % 81 % 8 % 1020,5 hPa 0,0 l/m 10,6 km/h (2 Bft) W-SW 247 0 min 4,9 C 5,4 C 14,8 km/h (3 Bft)
25.12.2016 14:00 7,9 C 4,7 C 7,2 C 7,9 C 7,3 C 0,0 C 83 % 82 % 0 % 1020,3 hPa 0,0 l/m 11,3 km/h (2 Bft) SW 225 0 min 5,2 C 5,2 C 12,1 km/h (2 Bft)
25.12.2016 14:05 7,9 C 4,7 C 7,2 C 7,7 C 7,3 C 0,0 C 82 % 84 % 0 % 1020,3 hPa 0,0 l/m 11,7 km/h (2 Bft) SW 225 0 min 5,0 C 5,1 C 15,8 km/h (3 Bft)
25.12.2016 14:10 8,1 C 4,8 C 7,3 C 8,0 C 7,4 C 0,0 C 82 % 84 % 0 % 1020,3 hPa 0,0 l/m 10,8 km/h (2 Bft) W-SW 247 0 min 5,2 C 5,4 C 7,9 km/h (2 Bft)
25.12.2016 14:15 8,1 C 4,8 C 7,5 C 8,0 C 7,3 C 0,0 C 82 % 86 % 0 % 1020,3 hPa 0,0 l/m 11,3 km/h (2 Bft) W-SW 247 0 min 5,2 C 5,2 C 26,4 km/h (4 Bft)
25.12.2016 14:20 8,2 C 4,8 C 7,6 C 7,9 C 7,3 C 0,0 C 82 % 86 % 0 % 1019,7 hPa 0,0 l/m 11,3 km/h (2 Bft) SW 225 0 min 5,3 C 5,2 C 11,7 km/h (2 Bft)
25.12.2016 14:25 8,3 C 4,8 C 7,8 C 8,2 C 7,6 C 0,0 C 81 % 87 % 0 % 1019,7 hPa 0,0 l/m 10,6 km/h (2 Bft) SW 225 0 min 5,2 C 5,7 C 15,1 km/h (3 Bft)
25.12.2016 14:30 8,3 C 4,8 C 7,9 C 8,2 C 7,5 C 0,0 C 81 % 87 % 0 % 1019,7 hPa 0,0 l/m 11,1 km/h (2 Bft) W-SW 247 0 min 5,2 C 5,4 C 14,5 km/h (3 Bft)
25.12.2016 14:35 8,4 C 4,8 C 7,8 C 8,1 C 7,5 C 0,0 C 81 % 88 % 0 % 1019,7 hPa 0,0 l/m 10,9 km/h (2 Bft) W 270 0 min 5,3 C 5,5 C 11,1 km/h (2 Bft)
25.12.2016 14:40 8,4 C 4,8 C 7,8 C 8,3 C 7,6 C 0,0 C 81 % 89 % 0 % 1019,6 hPa 0,0 l/m 10,6 km/h (2 Bft) W 270 0 min 5,3 C 5,7 C 13,4 km/h (3 Bft)
25.12.2016 14:45 8,4 C 4,8 C 7,9 C 8,1 C 7,6 C 0,0 C 81 % 89 % 0 % 1019,6 hPa 0,0 l/m 10,0 km/h (2 Bft) W-SW 247 0 min 5,3 C 5,8 C 13,8 km/h (3 Bft)
25.12.2016 14:50 8,4 C 4,8 C 7,9 C 8,1 C 7,6 C 0,0 C 81 % 89 % 0 % 1019,6 hPa 0,0 l/m 10,0 km/h (2 Bft) W 270 0 min 5,3 C 5,8 C 8,2 km/h (2 Bft)
25.12.2016 14:55 8,4 C 4,8 C 7,9 C 8,1 C 7,6 C 0,0 C 81 % 89 % 0 % 1019,6 hPa 0,0 l/m 10,0 km/h (2 Bft) W-SW 247 0 min 5,3 C 5,8 C 13,2 km/h (3 Bft)
25.12.2016 15:00 8,4 C 4,8 C 7,9 C 8,1 C 7,6 C 0,0 C 81 % 89 % 0 % 1020,2 hPa 0,0 l/m 10,0 km/h (2 Bft) SW 225 0 min 5,3 C 5,8 C 13,4 km/h (3 Bft)
25.12.2016 15:05 8,5 C 5,0 C 7,9 C 8,3 C 7,4 C 0,0 C 81 % 89 % 0 % 1020,2 hPa 0,0 l/m 10,6 km/h (2 Bft) W 270 0 min 5,4 C 5,4 C 7,2 km/h (2 Bft)
25.12.2016 15:10 8,5 C 5,0 C 7,9 C 8,3 C 7,3 C 0,0 C 81 % 89 % 0 % 1020,2 hPa 0,0 l/m 11,3 km/h (2 Bft) W-SW 247 0 min 5,4 C 5,2 C 17,9 km/h (3 Bft)
25.12.2016 15:15 8,5 C 5,0 C 7,9 C 8,3 C 7,5 C 0,0 C 81 % 89 % 0 % 1020,2 hPa 0,0 l/m 10,5 km/h (2 Bft) W-SW 247 0 min 5,4 C 5,5 C 12,1 km/h (2 Bft)
25.12.2016 15:20 8,5 C 5,0 C 7,9 C 8,3 C 7,4 C 0,0 C 81 % 89 % 0 % 1020,0 hPa 0,0 l/m 10,3 km/h (2 Bft) SW 225 0 min 5,4 C 5,5 C 16,6 km/h (3 Bft)
25.12.2016 15:25 8,5 C 5,0 C 7,9 C 8,3 C 7,3 C 0,0 C 81 % 89 % 0 % 1020,0 hPa 0,0 l/m 9,8 km/h (2 Bft) W-SW 247 0 min 5,4 C 5,4 C 12,6 km/h (3 Bft)
25.12.2016 15:30 8,5 C 5,0 C 7,9 C 8,3 C 7,4 C 0,0 C 81 % 89 % 0 % 1020,0 hPa 0,0 l/m 10,1 km/h (2 Bft) W-SW 247 0 min 5,4 C 5,5 C 14,8 km/h (3 Bft)
25.12.2016 15:35 8,5 C 5,0 C 7,9 C 8,1 C 7,4 C 0,0 C 81 % 89 % 0 % 1020,0 hPa 0,0 l/m 10,3 km/h (2 Bft) W-SW 247 0 min 5,4 C 5,5 C 9,5 km/h (2 Bft)
25.12.2016 15:40 8,5 C 5,0 C 7,9 C 8,1 C 7,4 C 0,0 C 81 % 89 % 0 % 1020,1 hPa 0,0 l/m 9,8 km/h (2 Bft) S-SW 202 0 min 5,4 C 5,6 C 12,9 km/h (3 Bft)
25.12.2016 15:45 8,5 C 5,0 C 7,9 C 8,3 C 7,6 C 0,0 C 81 % 89 % 0 % 1020,1 hPa 0,0 l/m 9,5 km/h (2 Bft) W-SW 247 0 min 5,4 C 5,9 C 10,3 km/h (2 Bft)
25.12.2016 15:50 8,4 C 5,0 C 7,9 C 8,1 C 7,6 C 0,0 C 81 % 89 % 0 % 1020,1 hPa 0,0 l/m 9,2 km/h (2 Bft) S-SW 202 0 min 5,3 C 5,9 C 14,2 km/h (3 Bft)
25.12.2016 15:55 8,4 C 5,0 C 7,9 C 8,3 C 7,5 C 0,0 C 81 % 89 % 0 % 1020,1 hPa 0,0 l/m 9,0 km/h (2 Bft) W-SW 247 0 min 5,3 C 5,8 C 9,8 km/h (2 Bft)
25.12.2016 16:00 8,4 C 5,1 C 7,9 C 8,2 C 7,4 C 0,0 C 81 % 89 % 0 % 1020,2 hPa 0,0 l/m 9,2 km/h (2 Bft) W-SW 247 0 min 5,3 C 5,7 C 10,1 km/h (2 Bft)
25.12.2016 16:05 8,4 C 5,1 C 7,9 C 8,1 C 7,4 C 0,0 C 81 % 89 % 0 % 1020,2 hPa 0,0 l/m 9,5 km/h (2 Bft) SW 225 0 min 5,3 C 5,6 C 16,6 km/h (3 Bft)
25.12.2016 16:10 8,5 C 5,1 C 7,9 C 8,3 C 7,3 C 0,0 C 81 % 90 % 0 % 1020,2 hPa 0,0 l/m 9,8 km/h (2 Bft) W-SW 247 0 min 5,4 C 5,4 C 12,7 km/h (3 Bft)
25.12.2016 16:15 8,4 C 5,1 C 7,9 C 8,2 C 7,6 C 0,0 C 81 % 90 % 0 % 1020,2 hPa 0,0 l/m 8,5 km/h (2 Bft) SW 225 0 min 5,3 C 6,1 C 9,2 km/h (2 Bft)
25.12.2016 16:20 8,4 C 5,1 C 7,9 C 8,3 C 7,5 C 0,0 C 81 % 90 % 0 % 1020,2 hPa 0,0 l/m 8,4 km/h (2 Bft) SW 225 0 min 5,3 C 6,0 C 14,0 km/h (3 Bft)
25.12.2016 16:25 8,4 C 5,1 C 7,8 C 8,3 C 7,6 C 0,0 C 81 % 90 % 0 % 1020,2 hPa 0,0 l/m 8,0 km/h (2 Bft) W-SW 247 0 min 5,3 C 6,2 C 7,2 km/h (2 Bft)
25.12.2016 16:30 8,3 C 5,1 C 7,9 C 8,1 C 7,6 C 0,0 C 82 % 90 % 0 % 1020,2 hPa 0,0 l/m 7,7 km/h (2 Bft) N-NW 337 0 min 5,4 C 6,3 C 6,3 km/h (2 Bft)
25.12.2016 16:35 8,3 C 5,1 C 7,7 C 8,1 C 7,3 C 0,0 C 82 % 90 % 0 % 1020,2 hPa 0,0 l/m 8,4 km/h (2 Bft) W 270 0 min 5,4 C 5,7 C 10,6 km/h (2 Bft)
25.12.2016 16:40 8,1 C 5,1 C 7,7 C 8,0 C 7,1 C 0,0 C 82 % 90 % 0 % 1020,2 hPa 0,0 l/m 9,3 km/h (2 Bft) W-SW 247 0 min 5,2 C 5,3 C 15,4 km/h (3 Bft)
25.12.2016 16:45 8,1 C 5,1 C 7,7 C 7,9 C 6,8 C 0,0 C 83 % 90 % 0 % 1020,2 hPa 0,0 l/m 10,1 km/h (2 Bft) SW 225 0 min 5,4 C 4,8 C 8,2 km/h (2 Bft)
25.12.2016 16:50 7,9 C 5,1 C 7,6 C 7,7 C 6,9 C 0,0 C 83 % 90 % 0 % 1020,2 hPa 0,0 l/m 9,5 km/h (2 Bft) W-SW 247 0 min 5,2 C 5,0 C 13,4 km/h (3 Bft)
25.12.2016 16:55 7,9 C 5,1 C 7,6 C 7,7 C 6,8 C 0,0 C 83 % 90 % 0 % 1020,2 hPa 0,0 l/m 10,1 km/h (2 Bft) SW 225 0 min 5,2 C 4,8 C 16,1 km/h (3 Bft)
25.12.2016 17:00 7,9 C 5,1 C 7,7 C 7,7 C 6,6 C 0,0 C 83 % 90 % 0 % 1020,1 hPa 0,0 l/m 11,1 km/h (2 Bft) W-SW 247 0 min 5,2 C 4,4 C 17,1 km/h (3 Bft)
25.12.2016 17:05 7,7 C 5,2 C 7,7 C 7,6 C 6,7 C 0,0 C 83 % 90 % 0 % 1020,1 hPa 0,0 l/m 10,5 km/h (2 Bft) SW 225 0 min 5,0 C 4,6 C 17,1 km/h (3 Bft)
25.12.2016 17:10 7,6 C 5,2 C 7,6 C 7,5 C 6,6 C 0,0 C 83 % 90 % 0 % 1020,1 hPa 0,0 l/m 10,5 km/h (2 Bft) SW 225 0 min 4,9 C 4,5 C 12,9 km/h (3 Bft)
25.12.2016 17:15 7,6 C 5,2 C 7,6 C 7,3 C 6,6 C 0,0 C 83 % 90 % 0 % 1020,1 hPa 0,0 l/m 10,8 km/h (2 Bft) W-SW 247 0 min 4,9 C 4,4 C 10,8 km/h (2 Bft)
25.12.2016 17:20 7,5 C 5,2 C 7,6 C 7,4 C 6,5 C 0,0 C 84 % 90 % 0 % 1020,9 hPa 0,0 l/m 10,9 km/h (2 Bft) W-SW 247 0 min 5,0 C 4,3 C 15,3 km/h (3 Bft)
25.12.2016 17:25 7,5 C 5,2 C 7,6 C 7,4 C 6,7 C 0,0 C 84 % 90 % 0 % 1020,9 hPa 0,0 l/m 9,3 km/h (2 Bft) SW 225 0 min 5,0 C 4,8 C 15,0 km/h (3 Bft)
25.12.2016 17:30 7,5 C 5,2 C 7,7 C 7,4 C 6,8 C 0,0 C 84 % 89 % 0 % 1020,9 hPa 0,0 l/m 9,0 km/h (2 Bft) W-SW 247 0 min 5,0 C 5,0 C 10,5 km/h (2 Bft)
25.12.2016 17:35 7,3 C 5,2 C 7,7 C 7,1 C 6,8 C 0,0 C 84 % 89 % 0 % 1020,9 hPa 0,0 l/m 9,0 km/h (2 Bft) O-SO 112 0 min 4,8 C 5,0 C 8,5 km/h (2 Bft)
25.12.2016 17:40 7,3 C 5,2 C 7,7 C 7,3 C 6,7 C 0,0 C 84 % 89 % 0 % 1020,2 hPa 0,0 l/m 9,3 km/h (2 Bft) W-SW 247 0 min 4,8 C 4,8 C 10,8 km/h (2 Bft)
25.12.2016 17:45 7,3 C 5,2 C 7,6 C 7,3 C 6,8 C 0,0 C 84 % 89 % 0 % 1020,2 hPa 0,0 l/m 8,9 km/h (2 Bft) W-SW 247 0 min 4,8 C 5,0 C 11,9 km/h (2 Bft)
25.12.2016 17:50 7,2 C 5,2 C 7,6 C 7,1 C 6,8 C 0,0 C 84 % 89 % 0 % 1020,2 hPa 0,0 l/m 9,0 km/h (2 Bft) W-SW 247 0 min 4,7 C 5,0 C 12,6 km/h (3 Bft)
25.12.2016 17:55 7,1 C 5,2 C 7,6 C 7,1 C 6,3 C 0,0 C 84 % 89 % 0 % 1020,2 hPa 0,0 l/m 10,8 km/h (2 Bft) W-SW 247 0 min 4,6 C 4,1 C 20,0 km/h (4 Bft)
25.12.2016 18:00 7,0 C 5,3 C 7,5 C 7,0 C 6,2 C 0,0 C 85 % 89 % 0 % 1020,6 hPa 0,0 l/m 11,1 km/h (2 Bft) SW 225 0 min 4,7 C 3,9 C 12,2 km/h (2 Bft)
25.12.2016 18:05 6,8 C 5,3 C 7,5 C 6,6 C 6,2 C 0,0 C 85 % 89 % 0 % 1020,6 hPa 0,0 l/m 10,1 km/h (2 Bft) SO 135 0 min 4,5 C 4,1 C 7,7 km/h (2 Bft)
25.12.2016 18:10 6,9 C 5,3 C 7,5 C 6,9 C 6,3 C 0,0 C 85 % 89 % 0 % 1020,6 hPa 0,0 l/m 8,4 km/h (2 Bft) SW 225 0 min 4,6 C 4,6 C 12,1 km/h (2 Bft)
25.12.2016 18:15 6,7 C 5,3 C 7,3 C 6,7 C 6,6 C 0,0 C 85 % 88 % 0 % 1020,6 hPa 0,0 l/m 6,8 km/h (2 Bft) W-SW 247 0 min 4,4 C 5,3 C 4,2 km/h (1 Bft)
25.12.2016 18:20 6,7 C 5,3 C 7,2 C 6,7 C 6,6 C 0,0 C 85 % 88 % 0 % 1020,8 hPa 0,0 l/m 6,3 km/h (2 Bft) S 180 0 min 4,4 C 5,5 C 8,2 km/h (2 Bft)
25.12.2016 18:25 6,4 C 5,3 C 7,3 C 6,8 C 6,8 C 0,4 C 85 % 88 % 0 % 1020,8 hPa 0,0 l/m 5,3 km/h (1 Bft) NW 315 0 min 4,1 C 6,0 C 4,8 km/h (1 Bft)
25.12.2016 18:30 6,4 C 5,3 C 7,3 C 6,7 C 6,7 C 0,3 C 85 % 88 % 0 % 1020,8 hPa 0,0 l/m 5,6 km/h (1 Bft) SW 225 0 min 4,1 C 5,8 C 10,1 km/h (2 Bft)
25.12.2016 18:35 6,5 C 5,3 C 7,2 C 7,0 C 7,0 C 0,5 C 85 % 87 % 0 % 1020,8 hPa 0,0 l/m 4,7 km/h (1 Bft) O-SO 112 0 min 4,2 C 6,5 C 3,2 km/h (1 Bft)
25.12.2016 18:40 6,4 C 5,3 C 7,2 C 7,3 C 7,3 C 0,9 C 85 % 87 % 0 % 1020,8 hPa 0,0 l/m 3,9 km/h (1 Bft) W-SW 247 0 min 4,1 C 7,3 C 3,1 km/h (1 Bft)
25.12.2016 18:45 6,5 C 5,3 C 7,3 C 7,6 C 7,6 C 1,1 C 85 % 87 % 0 % 1020,8 hPa 0,0 l/m 3,2 km/h (1 Bft) O-NO 67 0 min 4,2 C 7,6 C 4,0 km/h (1 Bft)
25.12.2016 18:50 6,4 C 5,3 C 7,3 C 7,6 C 7,6 C 1,2 C 85 % 87 % 0 % 1020,8 hPa 0,0 l/m 3,1 km/h (1 Bft) W-SW 247 0 min 4,1 C 7,6 C 1,8 km/h (1 Bft)
25.12.2016 18:55 6,5 C 5,3 C 7,2 C 7,7 C 7,7 C 1,2 C 85 % 87 % 0 % 1020,8 hPa 0,0 l/m 2,4 km/h (1 Bft) SO 135 0 min 4,2 C 7,7 C 1,8 km/h (1 Bft)
25.12.2016 19:00 6,5 C 5,3 C 7,2 C 7,7 C 7,7 C 1,2 C 85 % 86 % 0 % 1020,9 hPa 0,0 l/m 2,3 km/h (1 Bft) S 180 0 min 4,2 C 7,7 C 3,4 km/h (1 Bft)
25.12.2016 19:05 6,5 C 5,3 C 7,2 C 7,7 C 7,7 C 1,2 C 85 % 86 % 0 % 1020,9 hPa 0,0 l/m 3,7 km/h (1 Bft) SW 225 0 min 4,2 C 7,7 C 9,7 km/h (2 Bft)
25.12.2016 19:10 6,4 C 5,3 C 7,2 C 7,2 C 7,2 C 0,8 C 85 % 86 % 0 % 1020,9 hPa 0,0 l/m 5,0 km/h (1 Bft) W-SW 247 0 min 4,1 C 6,6 C 5,3 km/h (1 Bft)
25.12.2016 19:15 6,5 C 5,3 C 7,3 C 7,2 C 7,2 C 0,7 C 85 % 86 % 0 % 1020,9 hPa 0,0 l/m 6,0 km/h (2 Bft) W-SW 247 0 min 4,2 C 6,3 C 12,7 km/h (3 Bft)
25.12.2016 19:20 6,5 C 5,3 C 7,3 C 7,3 C 7,3 C 0,8 C 85 % 86 % 0 % 1021,3 hPa 0,0 l/m 5,5 km/h (1 Bft) SW 225 0 min 4,2 C 6,5 C 11,9 km/h (2 Bft)
25.12.2016 19:25 6,7 C 5,3 C 7,3 C 7,1 C 7,1 C 0,4 C 85 % 86 % 0 % 1021,3 hPa 0,0 l/m 6,3 km/h (2 Bft) W-SW 247 0 min 4,4 C 6,0 C 14,2 km/h (3 Bft)
25.12.2016 19:30 6,7 C 5,4 C 7,4 C 6,8 C 6,8 C 0,1 C 85 % 86 % 0 % 1021,3 hPa 0,0 l/m 6,9 km/h (2 Bft) SO 135 0 min 4,4 C 5,5 C 12,2 km/h (2 Bft)
25.12.2016 19:35 6,7 C 5,4 C 7,4 C 6,7 C 6,6 C 0,0 C 85 % 86 % 0 % 1021,3 hPa 0,0 l/m 7,1 km/h (2 Bft) SO 135 0 min 4,4 C 5,2 C 5,3 km/h (1 Bft)
25.12.2016 19:40 6,5 C 5,4 C 7,3 C 6,9 C 6,9 C 0,4 C 85 % 86 % 0 % 1021,3 hPa 0,0 l/m 6,0 km/h (2 Bft) W-SW 247 0 min 4,2 C 5,9 C 6,9 km/h (2 Bft)
25.12.2016 19:45 6,4 C 5,4 C 7,2 C 7,1 C 7,1 C 0,7 C 85 % 86 % 0 % 1021,3 hPa 0,0 l/m 4,8 km/h (1 Bft) NO 45 0 min 4,1 C 6,5 C 5,6 km/h (1 Bft)
25.12.2016 19:50 6,4 C 5,4 C 7,2 C 7,2 C 7,2 C 0,8 C 85 % 86 % 0 % 1021,3 hPa 0,0 l/m 4,5 km/h (1 Bft) O 90 0 min 4,1 C 7,2 C 5,0 km/h (1 Bft)
25.12.2016 19:55 6,4 C 5,4 C 7,2 C 7,2 C 7,2 C 0,8 C 86 % 85 % 0 % 1021,3 hPa 0,0 l/m 4,2 km/h (1 Bft) N-NW 337 0 min 4,2 C 7,2 C 3,4 km/h (1 Bft)
25.12.2016 20:00 6,3 C 5,4 C 7,2 C 7,3 C 7,3 C 1,0 C 86 % 85 % 0 % 1021,2 hPa 0,0 l/m 4,0 km/h (1 Bft) O-SO 112 0 min 4,1 C 7,3 C 5,0 km/h (1 Bft)
25.12.2016 20:05 6,3 C 5,4 C 7,1 C 7,4 C 7,4 C 1,1 C 86 % 84 % 0 % 1021,2 hPa 0,0 l/m 3,7 km/h (1 Bft) SO 135 0 min 4,1 C 7,4 C 9,0 km/h (2 Bft)
25.12.2016 20:10 6,2 C 5,5 C 7,1 C 7,1 C 7,1 C 0,9 C 86 % 84 % 0 % 1021,2 hPa 0,0 l/m 4,2 km/h (1 Bft) SO 135 0 min 4,0 C 7,1 C 4,8 km/h (1 Bft)
25.12.2016 20:15 6,3 C 5,5 C 7,0 C 7,4 C 7,4 C 1,1 C 86 % 84 % 0 % 1021,2 hPa 0,0 l/m 3,5 km/h (1 Bft) S-SW 202 0 min 4,1 C 7,4 C 4,0 km/h (1 Bft)
25.12.2016 20:20 6,2 C 5,5 C 7,1 C 7,4 C 7,4 C 1,2 C 86 % 84 % 0 % 1021,5 hPa 0,0 l/m 2,7 km/h (1 Bft) SW 225 0 min 4,0 C 7,4 C 5,5 km/h (1 Bft)
25.12.2016 20:25 6,1 C 5,5 C 7,1 C 7,0 C 7,0 C 0,9 C 86 % 83 % 0 % 1021,5 hPa 0,0 l/m 4,3 km/h (1 Bft) O-NO 67 0 min 3,9 C 7,0 C 9,2 km/h (2 Bft)
25.12.2016 20:30 6,1 C 5,5 C 7,1 C 6,6 C 6,6 C 0,5 C 86 % 83 % 0 % 1021,5 hPa 0,0 l/m 5,1 km/h (1 Bft) S 180 0 min 3,9 C 5,9 C 7,4 km/h (2 Bft)
25.12.2016 20:35 6,1 C 5,5 C 7,1 C 6,7 C 6,7 C 0,6 C 86 % 83 % 0 % 1021,5 hPa 0,0 l/m 5,3 km/h (1 Bft) SW 225 0 min 3,9 C 5,9 C 2,1 km/h (1 Bft)
25.12.2016 20:40 6,0 C 5,5 C 7,1 C 7,0 C 7,0 C 1,0 C 87 % 83 % 0 % 1021,5 hPa 0,0 l/m 4,3 km/h (1 Bft) W 270 0 min 4,0 C 7,0 C 4,7 km/h (1 Bft)
25.12.2016 20:45 6,0 C 5,5 C 7,0 C 7,3 C 7,3 C 1,3 C 87 % 82 % 0 % 1021,5 hPa 0,0 l/m 2,9 km/h (1 Bft) W-SW 247 0 min 4,0 C 7,3 C 7,7 km/h (2 Bft)
25.12.2016 20:50 6,1 C 5,5 C 6,9 C 7,0 C 7,0 C 0,9 C 87 % 82 % 0 % 1021,5 hPa 0,0 l/m 4,0 km/h (1 Bft) W-SW 247 0 min 4,1 C 7,0 C 12,6 km/h (3 Bft)
25.12.2016 20:55 6,1 C 5,5 C 6,9 C 6,4 C 6,4 C 0,3 C 87 % 82 % 0 % 1021,5 hPa 0,0 l/m 5,8 km/h (2 Bft) O-SO 112 0 min 4,1 C 5,4 C 6,8 km/h (2 Bft)
25.12.2016 21:00 6,1 C 5,5 C 6,9 C 6,7 C 6,7 C 0,6 C 87 % 82 % 0 % 1021,7 hPa 0,0 l/m 5,0 km/h (1 Bft) W-SW 247 0 min 4,1 C 6,0 C 2,9 km/h (1 Bft)
25.12.2016 21:05 6,1 C 5,5 C 6,9 C 7,0 C 7,0 C 0,9 C 87 % 82 % 0 % 1021,7 hPa 0,0 l/m 4,0 km/h (1 Bft) SO 135 0 min 4,1 C 7,0 C 2,4 km/h (1 Bft)
25.12.2016 21:10 6,0 C 5,5 C 6,9 C 7,2 C 7,2 C 1,2 C 87 % 81 % 0 % 1021,7 hPa 0,0 l/m 3,9 km/h (1 Bft) O-SO 112 0 min 4,0 C 7,2 C 6,1 km/h (2 Bft)
25.12.2016 21:15 6,0 C 5,5 C 6,9 C 7,4 C 7,4 C 1,4 C 87 % 81 % 0 % 1021,7 hPa 0,0 l/m 3,5 km/h (1 Bft) W-SW 247 0 min 4,0 C 7,4 C 12,1 km/h (2 Bft)
25.12.2016 21:20 6,0 C 5,5 C 6,9 C 7,3 C 7,3 C 1,3 C 87 % 81 % 0 % 1021,9 hPa 0,0 l/m 3,7 km/h (1 Bft) O-SO 112 0 min 4,0 C 7,3 C 0,0 km/h (0 Bft)
25.12.2016 21:25 6,0 C 5,5 C 6,9 C 6,9 C 6,9 C 0,9 C 87 % 81 % 0 % 1021,9 hPa 0,0 l/m 4,5 km/h (1 Bft) W-SW 247 0 min 4,0 C 6,9 C 4,0 km/h (1 Bft)
25.12.2016 21:30 6,0 C 5,5 C 6,8 C 7,0 C 7,0 C 1,0 C 87 % 81 % 0 % 1021,9 hPa 0,0 l/m 4,3 km/h (1 Bft) W 270 0 min 4,0 C 7,0 C 11,3 km/h (2 Bft)
25.12.2016 21:35 6,1 C 5,5 C 6,9 C 6,7 C 6,7 C 0,6 C 87 % 80 % 0 % 1021,9 hPa 0,0 l/m 5,1 km/h (1 Bft) N-NO 22 0 min 4,1 C 6,0 C 5,3 km/h (1 Bft)
25.12.2016 21:40 6,1 C 5,5 C 7,0 C 6,7 C 6,7 C 0,6 C 87 % 80 % 0 % 1021,6 hPa 0,0 l/m 5,6 km/h (1 Bft) N-NW 337 0 min 4,1 C 5,8 C 6,6 km/h (2 Bft)
25.12.2016 21:45 6,2 C 5,7 C 7,1 C 6,8 C 6,8 C 0,6 C 88 % 79 % 0 % 1021,6 hPa 0,0 l/m 5,3 km/h (1 Bft) W 270 0 min 4,4 C 6,0 C 3,4 km/h (1 Bft)
25.12.2016 21:50 6,3 C 5,7 C 7,1 C 6,7 C 6,7 C 0,4 C 87 % 79 % 0 % 1021,6 hPa 0,0 l/m 5,5 km/h (1 Bft) W-SW 247 0 min 4,3 C 5,8 C 10,5 km/h (2 Bft)
25.12.2016 21:55 6,3 C 5,7 C 7,1 C 6,7 C 6,7 C 0,4 C 88 % 79 % 0 % 1021,6 hPa 0,0 l/m 5,6 km/h (1 Bft) SO 135 0 min 4,5 C 5,8 C 6,0 km/h (2 Bft)
25.12.2016 22:00 6,3 C 5,7 C 7,1 C 6,6 C 6,6 C 0,3 C 88 % 79 % 0 % 1021,7 hPa 0,0 l/m 6,0 km/h (2 Bft) S 180 0 min 4,5 C 5,6 C 8,7 km/h (2 Bft)
25.12.2016 22:05 6,2 C 5,7 C 7,1 C 6,7 C 6,7 C 0,5 C 88 % 79 % 0 % 1021,7 hPa 0,0 l/m 5,8 km/h (2 Bft) W-SW 247 0 min 4,4 C 5,7 C 9,0 km/h (2 Bft)
25.12.2016 22:10 6,2 C 5,7 C 7,1 C 6,9 C 6,9 C 0,7 C 88 % 79 % 0 % 1021,7 hPa 0,0 l/m 5,0 km/h (1 Bft) W-NW 292 0 min 4,4 C 6,2 C 4,0 km/h (1 Bft)
25.12.2016 22:15 6,3 C 5,7 C 7,2 C 6,9 C 6,9 C 0,6 C 88 % 79 % 0 % 1021,7 hPa 0,0 l/m 4,8 km/h (1 Bft) N-NO 22 0 min 4,5 C 6,3 C 11,1 km/h (2 Bft)
25.12.2016 22:20 6,3 C 5,7 C 7,2 C 6,9 C 6,9 C 0,6 C 88 % 78 % 0 % 1021,8 hPa 0,0 l/m 4,8 km/h (1 Bft) W 270 0 min 4,5 C 6,3 C 6,6 km/h (2 Bft)
25.12.2016 22:25 6,4 C 5,7 C 7,2 C 6,8 C 6,8 C 0,4 C 88 % 78 % 0 % 1021,8 hPa 0,0 l/m 5,6 km/h (1 Bft) SW 225 0 min 4,6 C 5,9 C 4,0 km/h (1 Bft)
25.12.2016 22:30 6,4 C 5,6 C 7,3 C 6,9 C 6,9 C 0,5 C 88 % 78 % 0 % 1021,8 hPa 0,0 l/m 5,3 km/h (1 Bft) S 180 0 min 4,6 C 6,1 C 13,4 km/h (3 Bft)
25.12.2016 22:35 6,4 C 5,6 C 7,3 C 7,3 C 7,3 C 0,9 C 88 % 78 % 0 % 1021,8 hPa 0,0 l/m 4,3 km/h (1 Bft) W-SW 247 0 min 4,6 C 7,3 C 5,1 km/h (1 Bft)
25.12.2016 22:40 6,4 C 5,6 C 7,2 C 7,1 C 7,1 C 0,7 C 88 % 78 % 0 % 1021,8 hPa 0,0 l/m 4,8 km/h (1 Bft) SW 225 0 min 4,6 C 6,5 C 6,6 km/h (2 Bft)
25.12.2016 22:45 6,4 C 5,6 C 7,2 C 6,9 C 6,9 C 0,5 C 88 % 77 % 0 % 1021,8 hPa 0,0 l/m 5,6 km/h (1 Bft) W-SW 247 0 min 4,6 C 6,0 C 6,8 km/h (2 Bft)
25.12.2016 22:50 6,4 C 5,6 C 7,2 C 6,8 C 6,8 C 0,4 C 88 % 77 % 0 % 1021,8 hPa 0,0 l/m 6,0 km/h (2 Bft) S 180 0 min 4,6 C 5,8 C 8,7 km/h (2 Bft)
25.12.2016 22:55 6,4 C 5,6 C 7,3 C 7,0 C 7,0 C 0,6 C 88 % 77 % 0 % 1021,8 hPa 0,0 l/m 5,5 km/h (1 Bft) S-SW 202 0 min 4,6 C 6,2 C 4,8 km/h (1 Bft)
25.12.2016 23:00 6,4 C 5,6 C 7,3 C 7,3 C 7,3 C 0,9 C 88 % 77 % 0 % 1021,9 hPa 0,0 l/m 4,7 km/h (1 Bft) S 180 0 min 4,6 C 6,8 C 7,1 km/h (2 Bft)
25.12.2016 23:05 6,5 C 5,6 C 7,3 C 7,2 C 7,2 C 0,7 C 88 % 76 % 0 % 1021,9 hPa 0,0 l/m 5,1 km/h (1 Bft) S 180 0 min 4,7 C 6,5 C 8,4 km/h (2 Bft)
25.12.2016 23:10 6,5 C 5,6 C 7,3 C 6,9 C 6,9 C 0,4 C 88 % 76 % 0 % 1021,9 hPa 0,0 l/m 5,8 km/h (2 Bft) SW 225 0 min 4,7 C 6,0 C 6,6 km/h (2 Bft)
25.12.2016 23:15 6,5 C 5,6 C 7,3 C 6,9 C 6,9 C 0,4 C 88 % 76 % 0 % 1021,9 hPa 0,0 l/m 5,8 km/h (2 Bft) W-SW 247 0 min 4,7 C 6,0 C 7,7 km/h (2 Bft)
25.12.2016 23:20 6,5 C 5,6 C 7,3 C 7,1 C 7,1 C 0,6 C 88 % 76 % 0 % 1022,4 hPa 0,0 l/m 5,3 km/h (1 Bft) SW 225 0 min 4,7 C 6,4 C 4,2 km/h (1 Bft)
25.12.2016 23:25 6,5 C 5,6 C 7,3 C 7,3 C 7,3 C 0,8 C 88 % 76 % 0 % 1022,4 hPa 0,0 l/m 4,7 km/h (1 Bft) O-NO 67 0 min 4,7 C 6,8 C 4,8 km/h (1 Bft)
25.12.2016 23:30 6,5 C 5,6 C 7,3 C 7,4 C 7,4 C 0,9 C 88 % 76 % 0 % 1022,4 hPa 0,0 l/m 4,2 km/h (1 Bft) W-SW 247 0 min 4,7 C 7,4 C 5,5 km/h (1 Bft)
25.12.2016 23:35 6,4 C 5,6 C 7,3 C 7,7 C 7,7 C 1,3 C 88 % 76 % 0 % 1022,4 hPa 0,0 l/m 3,7 km/h (1 Bft) S-SW 202 0 min 4,6 C 7,7 C 3,4 km/h (1 Bft)
25.12.2016 23:40 6,4 C 5,6 C 7,3 C 7,4 C 7,4 C 1,0 C 88 % 76 % 0 % 1021,9 hPa 0,0 l/m 4,0 km/h (1 Bft) SW 225 0 min 4,6 C 7,4 C 7,4 km/h (2 Bft)
25.12.2016 23:45 6,5 C 5,6 C 7,3 C 7,2 C 7,2 C 0,7 C 88 % 76 % 0 % 1021,9 hPa 0,0 l/m 5,0 km/h (1 Bft) W-SW 247 0 min 4,7 C 6,6 C 6,3 km/h (2 Bft)
25.12.2016 23:50 6,5 C 5,6 C 7,3 C 6,9 C 6,9 C 0,4 C 88 % 75 % 0 % 1021,9 hPa 0,0 l/m 5,6 km/h (1 Bft) NW 315 0 min 4,7 C 6,0 C 4,7 km/h (1 Bft)
25.12.2016 23:55 6,5 C 5,6 C 7,3 C 7,2 C 7,2 C 0,7 C 88 % 75 % 0 % 1021,9 hPa 0,0 l/m 5,0 km/h (1 Bft) O 90 0 min 4,7 C 6,6 C 5,5 km/h (1 Bft)
_ Min-Zeit 12:25 00:00 00:00 00:00 01:00 00:00 00:00 23:50 00:00 14:40 - 19:00 - - - 00:00 01:00 21:20
Minimum _ 5,0 C 3,8 C 4,5 C 4,7 C 3,3 C 0,0 C 79 % 75 % 0 % 1019,6 hPa - 2,3 km/h (1 Bft) - - - 1,9 C 0,7 C 0,0 km/h (0 Bft)
_ Max-Zeit 15:05 21:45 14:30 14:40 18:55 21:15 21:45 00:00 12:45 00:00 11:25 13:45 - - 00:00 15:05 18:55 14:15
Maximum _ 8,5 C 5,7 C 7,9 C 8,3 C 7,7 C 1,4 C 88 % 90 % 34 % 1023,4 hPa 0,7 l/m 12,1 km/h
SW (2 Bft)
- - 0 min 5,4 C 7,7 C 26,4 km/h
W-SW (4 Bft)
Durchschnitt _ 6,5 C 4,7 C 6,4 C 6,5 C 5,8 C 0,2 C 83 % 86 % 1 % 1021,1 hPa #1,4 l/m 7,8 km/h (2 Bft) W-SW - #0 min. 3,8 C 4,2 C 10,2 km/h (2 Bft)
2016 www.wetterstation-wechselburg.de